sat.trackr.live / text

‹ back to catalog

HEAD-3A

NORAD 57626 · 2023-121A

PAYLOAD ACTIVE UNKNOWN

§ Identity

Operator
Country
PRC
Launch date
2023-08-14
Launch site
XICLF
Launch vehicle
Mass (kg)
RCS (m²)

External: N2YO · Heavens-Above · Gunter

§ Orbital elements

Epoch: 2026-09-21T21:59:44.029248Z

Period
98.58 min
Inclination
45.0010°
Eccentricity
0.0006512
Mean motion
14.60795731 rev/d
Perigee alt
686.0 km
Apogee alt
695.2 km
Semi-major
7,068.7 km
B*
1.0230e-4
RAAN
196.0084°
Arg perigee
52.4746°
Mean anomaly
307.6703°
Rev number
16,572

§ Raw data

HEAD-3A1 57626U 23121A   26264.91648182  .00000344  00000+0  10230-3 0  99932 57626  45.0010 196.0084 0006512  52.4746 307.6703 14.60795731165728

JSON: /api/v1/satellites/57626 · /tle

For live sub-satellite position, see the globe view (requires WebGL).

§ Visibility from observer

Set your observer location to see the next 7 days of passes ≥ 10°. The values pass through the URL so the page stays shareable.

No JS? Fill the form by hand. The geolocation button needs JavaScript.